Location: Hilton Head Island
(32.2163°N, 80.7526°W)
Time: 18:40:46
(UTC-04:00)

A-11 Canister half - Pass Details

Date: 23 February 2026
Orbit: 1525 x 1683 km, 47.3° (Epoch: 10 March)

Event Time Altitude Azimuth Distance (km) Brightness Sun altitude
Rises 22:26:18 0° 305° (NW) 4,674 12.1 -52.3°
Reaches altitude 10° 22:29:23 10° 301° (WNW) 3,693 11.4 -52.9°
Enters shadow 22:32:53 26° 293° (WNW) 2,653 10.4 -53.5°
